TimeMDT,TemperatureF,Dew PointF,Humidity,Sea Level PressureIn,VisibilityMPH,Wind Direction,Wind SpeedMPH,Gust SpeedMPH,PrecipitationIn,Events,Conditions,WindDirDegrees,DateUTC
12:55 AM,33.1,27.0,78,29.95,10.0,North,5.8,-,N/A,,Clear,350,2012-10-11 06:55:00
1:55 AM,34.0,28.0,79,29.95,10.0,Calm,Calm,-,N/A,,Clear,0,2012-10-11 07:55:00
2:55 AM,34.0,28.0,79,29.94,10.0,North,6.9,-,N/A,,Clear,350,2012-10-11 08:55:00
3:55 AM,35.1,28.9,78,29.93,10.0,NNW,9.2,-,N/A,,Clear,330,2012-10-11 09:55:00
4:55 AM,46.0,28.9,51,29.91,10.0,North,6.9,-,N/A,,Clear,350,2012-10-11 10:55:00
5:55 AM,37.0,28.0,70,29.96,10.0,North,3.5,-,N/A,,Clear,350,2012-10-11 11:55:00
6:55 AM,36.0,27.0,70,30.01,10.0,NNW,4.6,-,N/A,,Clear,340,2012-10-11 12:55:00
7:55 AM,48.9,28.9,46,29.99,10.0,Calm,Calm,-,N/A,,Clear,0,2012-10-11 13:55:00
8:55 AM,55.0,30.9,40,29.99,10.0,NW,4.6,-,N/A,,Clear,310,2012-10-11 14:55:00
9:55 AM,69.1,30.0,23,29.97,10.0,NNW,6.9,-,N/A,,Clear,330,2012-10-11 15:55:00
10:55 AM,69.1,30.0,23,30.01,10.0,North,16.1,-,N/A,,Clear,10,2012-10-11 16:55:00
11:55 AM,69.1,33.1,26,30.03,10.0,North,15.0,-,N/A,,Clear,10,2012-10-11 17:55:00
12:55 PM,68.0,37.0,32,30.03,10.0,NNE,16.1,23.0,N/A,,Clear,20,2012-10-11 18:55:00
1:55 PM,68.0,36.0,31,30.01,10.0,NNE,15.0,-,N/A,,Clear,20,2012-10-11 19:55:00
2:55 PM,66.9,34.0,30,30.03,10.0,NE,16.1,23.0,N/A,,Clear,50,2012-10-11 20:55:00
4:55 PM,61.0,34.0,36,30.03,10.0,NE,17.3,24.2,N/A,,Clear,50,2012-10-11 22:55:00
5:55 PM,55.0,34.0,45,30.11,10.0,ENE,12.7,17.3,N/A,,Clear,60,2012-10-11 23:55:00
7:55 PM,43.0,30.9,62,30.20,10.0,East,3.5,-,N/A,,Clear,80,2012-10-12 01:55:00
8:55 PM,39.0,30.0,70,30.22,10.0,ENE,8.1,-,N/A,,Clear,60,2012-10-12 02:55:00
9:55 PM,37.9,30.0,73,30.17,10.0,ENE,4.6,-,N/A,,Clear,70,2012-10-12 03:55:00
10:55 PM,36.0,30.0,79,30.19,10.0,SSE,4.6,-,N/A,,Clear,160,2012-10-12 04:55:00
11:55 PM,33.1,28.0,82,30.19,10.0,Calm,Calm,-,N/A,,Clear,0,2012-10-12 05:55:00